SES-15

Last updated on Oct. 31, 2020, 5:53 a.m. UTC

1 42709U 17026A   20304.62433347  .00000065  00000-0  00000-0 0  9990
2 42709   0.0065   3.7066 0000570 221.4884 269.8483  1.00268211 13542
UTC
Height (km)
Latitude
Longitude
Inclination
Orbital Period
UTC large
Height (km)
Speed (km/s)
/
Latitude / Longitude
Inclination (degrees)
Orbital Period (minutes)
Azimuth
Elevation
Range (km)
Doppler Factor
iOS Compass Heading
iOS Angle

Next 30 passes for location: Hong Kong

Rise time Rise Azimuth (degrees) Set time Set Azimuth (degrees) Duration Max altitude (degrees)

No matching passes for this satellites